Voltar ao catálogo

STARLINK-35566

AtivoComunicaçõesVLEO
NORAD 66061·PAYLOAD·🇺🇸 United States

Lançado Oct 19, 2025 de Cape Canaveral Space Force Station

Loading…

Próximas Passagens (próximas 24 horas)

TLE

AtualizadoSource: CelesTrak SupGP

Época: Sep 15, 2026, 03:47 UTC

1 66061C 25235D   26258.15812500 -.00025029  00000+0 -73948-3 0  2582
2 66061  53.1599  84.5558 0001191  87.0575 110.7906 15.34403669    18

Acompanhe STARLINK-35566 em tempo real com AllMySat

Download on the App Store